Weather History for Paducah, KY

Change the Weather History Date:

Tuesday, July 2, 2013

  Actual Average Record
Temperature  
Mean Temperature 69 °F 79 °F  
Max Temperature 75 °F 89 °F 101 °F (2012)
Min Temperature 63 °F 68 °F 56 °F (1948)
Degree Days  
Heating Degree Days 0 0  
Month to date heating degree days 0 0  
Since 1 June heating degree days 0 4  
Since 1 July heating degree days 0 0  
Cooling Degree Days 4 14  
Month to date cooling degree days 7 28  
Year to date cooling degree days 507 520  
Since 1 June cooling degree days 329 348  
Growing Degree Days 18 (Base 50)    
Moisture  
Dew Point 63 °F    
Average Humidity 82    
Maximum Humidity 100    
Minimum Humidity 64    
Precipitation  
Precipitation 0.08 in 0.14 in 2.68 in (1989)
Month to date precipitation 0.09 0.29  
Year to date precipitation 34.67 25.57  
Snow  
Snow 0.00 in 0.00 in - ()
Month to date snowfall 0.0 0.0  
Since 1 June snowfall 0.0 0.0  
Since 1 July snowfall 0.0 0.0  
Snow Depth 0.00 in    
Sea Level Pressure  
Sea Level Pressure 29.93 in    
Wind  
Wind Speed 7 mph (SW)    
Max Wind Speed 15 mph    
Max Gust Speed 21 mph    
Visibility 7 miles    
Events Rain    
T = Trace of Precipitation, MM = Missing Value Source: NWS Daily Summary

Daily Weather History Graph

Daily Weather History Graph

Search for Another Location

Airport:

Trip Planner

Search our weather history database for the weather conditions in past years. The results will help you decide how hot, cold, wet, or windy it might be!

Date:

Astronomy

Jul. 02, 2013 Rise Set
Actual Time 5:39 AM CDT 8:18 PM CDT
Civil Twilight 5:08 AM CDT 8:49 PM CDT
Nautical Twilight 4:30 AM CDT 9:27 PM CDT
Astronomical Twilight 3:47 AM CDT 10:10 PM CDT
Moon 1:38 AM CDT 3:35 PM CDT
Length of Visible Light 15h 40m
Length of Day
14h 39m
Waning Crescent, 26% of the Moon is Illuminated
Jul 2
Waning Crescent
Jul 8
New
Jul 15
First Quarter
Jul 22
Full
Jul 29
Last Quarter

Hourly Weather History & Observations

Time (CDT) Temp. Dew Point Humidity Pressure Visibility Wind Dir Wind Speed Gust Speed Precip Events Conditions
12:53 AM 64.9 °F 64.0 °F 97% 29.88 in 6.0 mi Calm Calm - N/A   Mostly Cloudy
1:53 AM 64.9 °F 64.0 °F 97% 29.88 in 5.0 mi SW 3.5 mph - N/A   Overcast
2:19 AM 64.4 °F 64.4 °F 100% 29.88 in 6.0 mi WSW 3.5 mph - N/A   Overcast
2:36 AM 64.4 °F 64.4 °F 100% 29.87 in 6.0 mi WSW 4.6 mph - N/A   Overcast
2:53 AM 64.9 °F 64.0 °F 97% 29.86 in 6.0 mi WSW 4.6 mph - N/A   Overcast
3:53 AM 64.0 °F 63.0 °F 96% 29.86 in 6.0 mi SW 4.6 mph - N/A   Overcast
4:53 AM 64.9 °F 63.0 °F 93% 29.87 in 6.0 mi Calm Calm - N/A   Overcast
5:04 AM 64.4 °F 62.6 °F 94% 29.88 in 7.0 mi Calm Calm - N/A   Mostly Cloudy
5:12 AM 64.4 °F 62.6 °F 94% 29.89 in 7.0 mi South 3.5 mph - N/A   Mostly Cloudy
5:14 AM 64.4 °F 62.6 °F 94% 29.89 in 7.0 mi Calm Calm - N/A   Mostly Cloudy
5:23 AM 64.4 °F 62.6 °F 94% 29.89 in 6.0 mi Calm Calm - N/A   Mostly Cloudy
5:31 AM 64.4 °F 62.6 °F 94% 29.89 in 6.0 mi SW 4.6 mph - N/A   Mostly Cloudy
5:53 AM 64.9 °F 64.0 °F 97% 29.89 in 5.0 mi South 3.5 mph - N/A   Mostly Cloudy
6:07 AM 64.4 °F 64.4 °F 100% 29.90 in 5.0 mi SSE 3.5 mph - N/A   Mostly Cloudy
6:18 AM 64.4 °F 64.4 °F 100% 29.90 in 4.0 mi South 4.6 mph - N/A   Overcast
6:25 AM 64.4 °F 64.4 °F 100% 29.90 in 4.0 mi South 4.6 mph - N/A   Mostly Cloudy
6:53 AM 66.0 °F 64.0 °F 93% 29.90 in 5.0 mi SSW 4.6 mph - N/A   Overcast
7:12 AM 66.2 °F 64.4 °F 94% 29.91 in 5.0 mi South 4.6 mph - N/A   Overcast
7:21 AM 66.2 °F 64.4 °F 94% 29.92 in 1.8 mi SSW 5.8 mph - 0.00 in Rain Light Rain
7:32 AM 66.2 °F 64.4 °F 94% 29.92 in 0.8 mi SSW 4.6 mph - 0.06 in Rain Rain
7:39 AM 64.4 °F 64.4 °F 100% 29.92 in 1.2 mi SSW 5.8 mph - 0.07 in Rain Light Rain
7:50 AM 66.2 °F 64.4 °F 94% 29.92 in 2.5 mi SSW 6.9 mph - 0.08 in Rain Light Rain
7:53 AM 66.0 °F 64.0 °F 93% 29.91 in 3.0 mi SSW 5.8 mph - 0.08 in Rain Light Rain
8:06 AM 66.2 °F 64.4 °F 94% 29.92 in 3.0 mi SSW 6.9 mph - 0.00 in   Overcast
8:15 AM 66.2 °F 64.4 °F 94% 29.92 in 4.0 mi SSW 5.8 mph - 0.00 in   Overcast
9:20 AM 66.2 °F 64.4 °F 94% 29.93 in 7.0 mi SW 6.9 mph - N/A   Overcast
9:53 AM 68.0 °F 64.0 °F 87% 29.93 in 9.0 mi SW 10.4 mph - N/A   Overcast
10:05 AM 68.0 °F 64.4 °F 88% 29.94 in 8.0 mi SW 8.1 mph - 0.00 in Rain Light Rain
10:13 AM 69.8 °F 66.2 °F 88% 29.94 in 9.0 mi WSW 6.9 mph - 0.00 in   Overcast
10:44 AM 69.8 °F 64.4 °F 83% 29.94 in 10.0 mi SW 8.1 mph - 0.00 in   Overcast
10:53 AM 69.1 °F 64.0 °F 84% 29.94 in 10.0 mi SW 9.2 mph - 0.00 in   Overcast
11:53 AM 73.0 °F 64.0 °F 73% 29.94 in 10.0 mi West 13.8 mph - N/A   Mostly Cloudy
12:53 PM 72.0 °F 63.0 °F 73% 29.95 in 10.0 mi West 12.7 mph - N/A   Overcast
1:53 PM 72.0 °F 62.1 °F 71% 29.96 in 10.0 mi West 11.5 mph - N/A   Overcast
2:53 PM 73.0 °F 62.1 °F 68% 29.96 in 10.0 mi West 6.9 mph - N/A   Overcast
3:12 PM 71.6 °F 62.6 °F 73% 29.97 in 10.0 mi WNW 9.2 mph - N/A   Overcast
3:37 PM 73.4 °F 62.6 °F 69% 29.97 in 10.0 mi West 10.4 mph - N/A   Overcast
3:53 PM 75.0 °F 63.0 °F 66% 29.96 in 10.0 mi West 11.5 mph - N/A   Mostly Cloudy
4:53 PM 71.1 °F 63.0 °F 75% 29.98 in 10.0 mi West 9.2 mph 18.4 mph N/A   Partly Cloudy
5:53 PM 70.0 °F 62.1 °F 76% 29.98 in 10.0 mi WNW 11.5 mph - N/A   Partly Cloudy
6:53 PM 69.1 °F 60.1 °F 73% 29.98 in 10.0 mi WNW 8.1 mph - N/A   Clear
7:53 PM 66.9 °F 60.1 °F 79% 29.99 in 10.0 mi West 9.2 mph - N/A   Clear
8:46 PM 64.4 °F 60.8 °F 88% 30.02 in 10.0 mi WSW 6.9 mph - N/A   Mostly Cloudy
8:53 PM 64.9 °F 60.1 °F 84% 30.01 in 10.0 mi WSW 3.5 mph - N/A   Mostly Cloudy
9:18 PM 64.4 °F 60.8 °F 88% 30.03 in 10.0 mi WSW 5.8 mph - N/A   Overcast
9:53 PM 64.9 °F 61.0 °F 87% 30.03 in 10.0 mi WSW 5.8 mph - N/A   Overcast
10:53 PM 64.0 °F 61.0 °F 90% 30.03 in 10.0 mi West 5.8 mph - N/A   Overcast
11:38 PM 62.6 °F 60.8 °F 94% 30.03 in 8.0 mi West 5.8 mph - N/A   Mostly Cloudy
11:53 PM 63.0 °F 61.0 °F 93% 30.03 in 7.0 mi West 5.8 mph - N/A   Mostly Cloudy